Tracking 30701 objects as of 14-Jun-2025
HD Live streaming from Space Station
objects crossing your sky now

STARLINK-4723

Track STARLINK-4723 now!
10-day predictions
STARLINK-4723 is classified as:


NORAD ID: 53797
Int'l Code: 2022-111AA
Perigee: 545.7 km
Apogee: 548.1 km
Inclination: 53.2 °
Period: 95.4 minutes
Semi major axis: 6917 km
RCS: Unknown
Launch date: September 11, 2022
Source: United States (US)
Launch site: AIR FORCE EASTERN TEST RANGE (AFETR)
Your satellite tracking list
Your tracking list is empty




NASA's NSSDC Master Catalog

Two Line Element Set (TLE):
1 53797U 22111AA  25165.36000827  .00000026  00000-0  19713-4 0  9996
2 53797  53.2173  38.2627 0001761  87.1768 272.9426 15.08832778153172
Source of the keplerian elements: AFSPC